Location: Unspecified
(42.1450°N, 0.0000°E)
Time: 18:06:20
(UTC+00:00)

OBJECT E - Visible Passes

Search period start: 04 April 2026 00:00
Search period end: 14 April 2026 00:00
Orbit: 796 x 802 km, 98.7° (Epoch: 28 March)

Date Brightness Start Highest point End Pass type
(mag) Time Alt. Az. Time Alt. Az. Time Alt. Az.
4 Apr ? 18:48:06 10° SSW 18:53:01 41° W 18:57:59 10° NNW visible
6 Apr ? 19:36:05 10° SW 19:39:11 16° W 19:42:20 10° NW visible
7 Apr ? 19:07:32 10° SSW 19:11:59 28° W 19:16:28 10° NW visible
10 Apr ? 19:27:23 10° SW 19:31:02 19° W 19:34:41 10° NW visible
11 Apr ? 18:59:10 10° SSW 19:03:51 33° W 19:08:36 10° NNW visible
13 Apr ? 19:47:59 10° WSW 19:50:07 12° W 19:52:16 10° WNW visible
